AFR24KA LFPG-EDDN

Flight info

Callsign AFR24KA
Flight time 1h 5m
Altitude 30000
Route RANUX DCT VALEK DCT LIPNI UN858 LIMGO DCT BOMBI Z723 KOMIB T193 ERTES T194 DODAS DODAS1V
Aircraft E190/M-SDE3GILORVW/S

Departure

Time 2026-05-07 14:48
Airport Charles de Gaulle International Airport (LFPG)

Arrival

Time 2026-05-07 15:53
Airport Nuremberg Airport (EDDN)
Time Latitude Longitude Altitude Speed Heading
2026-05-07 13:49 49.00416 2.60000 333 ft 0 kts 85°
2026-05-07 14:30 49.00414 2.59973 331 ft 4 kts 87°
2026-05-07 14:30 49.00416 2.59936 331 ft 4 kts 131°
2026-05-07 14:31 49.00433 2.59925 329 ft 4 kts 176°
2026-05-07 14:31 49.00438 2.59925 331 ft 0 kts 176°
2026-05-07 14:35 49.00424 2.59926 328 ft 5 kts 177°
2026-05-07 14:35 49.00366 2.59932 331 ft 11 kts 178°
2026-05-07 14:36 49.00328 2.59847 333 ft 12 kts 265°
2026-05-07 14:36 49.00320 2.59706 333 ft 15 kts 264°
2026-05-07 14:36 49.00375 2.59612 332 ft 15 kts 352°
2026-05-07 14:36 49.00485 2.59599 329 ft 17 kts 355°
2026-05-07 14:37 49.00611 2.59583 331 ft 19 kts 354°
2026-05-07 14:37 49.00903 2.59547 333 ft 23 kts 356°
2026-05-07 14:37 49.01002 2.59495 332 ft 14 kts 298°
2026-05-07 14:38 49.01000 2.59342 331 ft 16 kts 265°
2026-05-07 14:38 49.00990 2.59162 333 ft 18 kts 265°
2026-05-07 14:38 49.00961 2.58966 331 ft 20 kts 253°
2026-05-07 14:38 49.00946 2.58744 333 ft 22 kts 265°
2026-05-07 14:39 49.00933 2.58499 333 ft 24 kts 264°
2026-05-07 14:39 49.00918 2.58234 333 ft 26 kts 265°
2026-05-07 14:39 49.01012 2.58094 330 ft 22 kts 354°
2026-05-07 14:39 49.01158 2.58074 338 ft 20 kts 355°
2026-05-07 14:40 49.01297 2.58058 345 ft 19 kts 355°
2026-05-07 14:40 49.01426 2.58042 350 ft 18 kts 355°
2026-05-07 14:40 49.01549 2.58025 354 ft 17 kts 355°
2026-05-07 14:40 49.01667 2.58011 359 ft 17 kts 356°
2026-05-07 14:41 49.01781 2.57996 363 ft 18 kts 355°
2026-05-07 14:41 49.01907 2.57958 363 ft 19 kts 332°
2026-05-07 14:41 49.01992 2.57802 360 ft 20 kts 289°
2026-05-07 14:41 49.01995 2.57580 360 ft 22 kts 264°
2026-05-07 14:42 49.01982 2.57335 360 ft 24 kts 265°
2026-05-07 14:42 49.01969 2.57074 360 ft 26 kts 265°
2026-05-07 14:42 49.01953 2.56796 361 ft 27 kts 265°
2026-05-07 14:42 49.01938 2.56502 361 ft 28 kts 265°
2026-05-07 14:43 49.01923 2.56227 361 ft 24 kts 265°
2026-05-07 14:43 49.01909 2.55967 361 ft 25 kts 265°
2026-05-07 14:43 49.01893 2.55684 361 ft 27 kts 265°
2026-05-07 14:43 49.01878 2.55392 361 ft 28 kts 264°
2026-05-07 14:44 49.01861 2.55085 361 ft 30 kts 264°
2026-05-07 14:44 49.01843 2.54766 361 ft 31 kts 266°
2026-05-07 14:44 49.01826 2.54434 361 ft 32 kts 264°
2026-05-07 14:44 49.01817 2.54185 367 ft 17 kts 285°
2026-05-07 14:45 49.01896 2.54069 361 ft 16 kts 279°
2026-05-07 14:45 49.01888 2.53884 367 ft 19 kts 265°
2026-05-07 14:45 49.01877 2.53676 361 ft 21 kts 265°
2026-05-07 14:45 49.01864 2.53445 363 ft 23 kts 265°
2026-05-07 14:46 49.01851 2.53194 361 ft 25 kts 264°
2026-05-07 14:46 49.01912 2.53037 364 ft 19 kts 353°
2026-05-07 14:46 49.02046 2.53020 366 ft 19 kts 355°
2026-05-07 14:46 49.02148 2.53062 373 ft 15 kts 51°
2026-05-07 14:47 49.02164 2.53175 372 ft 0 kts 86°
2026-05-07 14:47 49.02165 2.53199 372 ft 6 kts 86°
2026-05-07 14:47 49.02187 2.53599 371 ft 78 kts 85°
2026-05-07 14:47 49.02253 2.54802 373 ft 149 kts 84°
2026-05-07 14:48 49.02349 2.56571 839 ft 181 kts 85°
2026-05-07 14:48 49.02454 2.58661 1594 ft 210 kts 86°
2026-05-07 14:48 49.02561 2.60886 2611 ft 207 kts 85°
2026-05-07 14:48 49.02682 2.63074 3458 ft 211 kts 85°
2026-05-07 14:49 49.02806 2.65345 4234 ft 219 kts 85°
2026-05-07 14:49 49.02935 2.67761 4793 ft 244 kts 85°
2026-05-07 14:49 49.03076 2.70443 5385 ft 264 kts 86°
2026-05-07 14:49 49.03222 2.73281 6225 ft 271 kts 86°
2026-05-07 14:50 49.03364 2.76202 7100 ft 274 kts 86°
2026-05-07 14:50 49.03505 2.79117 7944 ft 278 kts 86°
2026-05-07 14:50 49.03648 2.82088 8767 ft 284 kts 86°
2026-05-07 14:50 49.03792 2.85116 9635 ft 289 kts 86°
2026-05-07 14:51 49.03942 2.88212 10367 ft 301 kts 86°
2026-05-07 14:51 49.04099 2.91533 10762 ft 323 kts 86°
2026-05-07 14:51 49.04273 2.95026 11167 ft 343 kts 85°
2026-05-07 14:51 49.04545 2.98690 11882 ft 351 kts 83°
2026-05-07 14:52 49.04849 3.02472 12800 ft 356 kts 83°
2026-05-07 14:52 49.05136 3.06225 13742 ft 360 kts 83°
2026-05-07 14:52 49.05326 3.08751 14329 ft 363 kts 84°
2026-05-07 14:52 49.05610 3.12603 15203 ft 368 kts 84°
2026-05-07 14:53 49.05894 3.16511 16076 ft 373 kts 84°
2026-05-07 14:53 49.06180 3.20477 16905 ft 379 kts 84°
2026-05-07 14:53 49.06469 3.24493 17754 ft 384 kts 84°
2026-05-07 14:53 49.06759 3.28573 18554 ft 389 kts 84°
2026-05-07 14:54 49.07054 3.32691 19301 ft 393 kts 84°
2026-05-07 14:54 49.07350 3.36862 20008 ft 397 kts 84°
2026-05-07 14:54 49.07645 3.41066 20691 ft 401 kts 84°
2026-05-07 14:54 49.07942 3.45324 21339 ft 405 kts 84°
2026-05-07 14:55 49.08242 3.49617 21988 ft 409 kts 84°
2026-05-07 14:55 49.08543 3.53950 22631 ft 413 kts 84°
2026-05-07 14:55 49.08843 3.58325 23278 ft 417 kts 84°
2026-05-07 14:55 49.09142 3.62761 23916 ft 420 kts 84°
2026-05-07 14:56 49.09438 3.67167 24499 ft 424 kts 84°
2026-05-07 14:56 49.09740 3.71662 25078 ft 427 kts 84°
2026-05-07 14:56 49.10044 3.76226 25647 ft 431 kts 84°
2026-05-07 14:56 49.10345 3.80773 26183 ft 434 kts 84°
2026-05-07 14:57 49.10650 3.85387 26696 ft 438 kts 84°
2026-05-07 14:57 49.10953 3.90022 27173 ft 441 kts 84°
2026-05-07 14:57 49.11257 3.94701 27632 ft 445 kts 84°
2026-05-07 14:57 49.11565 3.99465 28092 ft 448 kts 84°
2026-05-07 14:58 49.11869 4.04200 28522 ft 450 kts 84°
2026-05-07 14:58 49.12174 4.08985 28935 ft 453 kts 84°
2026-05-07 14:58 49.12478 4.13780 29446 ft 453 kts 84°
2026-05-07 14:58 49.12778 4.18553 30054 ft 451 kts 84°
2026-05-07 14:59 49.13364 4.27969 30081 ft 441 kts 84°
2026-05-07 14:59 49.14116 4.37236 30059 ft 439 kts 75°
2026-05-07 15:00 49.16346 4.45912 30071 ft 439 kts 66°
2026-05-07 15:00 49.18719 4.54516 30094 ft 439 kts 66°
2026-05-07 15:01 49.21073 4.63131 30088 ft 439 kts 66°
2026-05-07 15:01 49.23418 4.71764 30061 ft 439 kts 67°
2026-05-07 15:02 49.25750 4.80393 30059 ft 439 kts 67°
2026-05-07 15:02 49.28072 4.89023 30054 ft 438 kts 67°
2026-05-07 15:03 49.30476 4.97988 30050 ft 438 kts 67°
2026-05-07 15:03 49.32696 5.06301 30051 ft 438 kts 67°
2026-05-07 15:04 49.34996 5.14946 30052 ft 438 kts 67°
2026-05-07 15:04 49.37288 5.23592 30055 ft 438 kts 67°
2026-05-07 15:05 49.39573 5.32245 30055 ft 437 kts 67°
2026-05-07 15:05 49.41852 5.40905 30052 ft 437 kts 67°
2026-05-07 15:06 49.44123 5.49570 30052 ft 437 kts 67°
2026-05-07 15:06 49.46390 5.58248 30048 ft 437 kts 67°
2026-05-07 15:07 49.48635 5.66869 30053 ft 437 kts 68°
2026-05-07 15:07 49.50894 5.75557 30047 ft 437 kts 68°
2026-05-07 15:08 49.53010 5.84331 30056 ft 438 kts 71°
2026-05-07 15:08 49.55107 5.93114 30046 ft 437 kts 68°
2026-05-07 15:09 49.57281 6.01858 30050 ft 437 kts 68°
2026-05-07 15:09 49.59443 6.10609 30049 ft 437 kts 69°
2026-05-07 15:10 49.61598 6.19371 30051 ft 437 kts 69°
2026-05-07 15:10 49.63717 6.28145 30051 ft 437 kts 72°
2026-05-07 15:11 49.65370 6.37178 30040 ft 437 kts 74°
2026-05-07 15:11 49.66959 6.46231 30042 ft 437 kts 74°
2026-05-07 15:12 49.68549 6.55283 30041 ft 437 kts 74°
2026-05-07 15:12 49.70136 6.64341 30033 ft 436 kts 74°
2026-05-07 15:13 49.71713 6.73393 30026 ft 436 kts 74°
2026-05-07 15:13 49.73284 6.82448 30034 ft 436 kts 74°
2026-05-07 15:14 49.74847 6.91501 30037 ft 436 kts 74°
2026-05-07 15:14 49.76401 7.00548 30040 ft 435 kts 74°
2026-05-07 15:15 49.77937 7.09546 30051 ft 435 kts 74°
2026-05-07 15:15 49.79476 7.18599 30051 ft 435 kts 74°
2026-05-07 15:16 49.81006 7.27649 30046 ft 435 kts 74°
2026-05-07 15:16 49.82538 7.36760 30046 ft 434 kts 74°
2026-05-07 15:17 49.84044 7.45760 30049 ft 434 kts 74°
2026-05-07 15:17 49.85550 7.54810 30045 ft 434 kts 74°
2026-05-07 15:18 49.87048 7.63860 30046 ft 433 kts 75°
2026-05-07 15:18 49.88540 7.72916 30035 ft 433 kts 75°
2026-05-07 15:19 49.90055 7.82130 30044 ft 433 kts 75°
2026-05-07 15:19 49.91541 7.91185 30051 ft 433 kts 75°
2026-05-07 15:20 49.93001 8.00130 30041 ft 433 kts 75°
2026-05-07 15:20 49.94467 8.09197 30051 ft 432 kts 75°
2026-05-07 15:21 49.95932 8.18310 30054 ft 432 kts 75°
2026-05-07 15:21 49.97381 8.27372 30051 ft 432 kts 75°
2026-05-07 15:22 49.98825 8.36451 30050 ft 433 kts 75°
2026-05-07 15:22 50.00260 8.45528 30051 ft 433 kts 75°
2026-05-07 15:23 50.01692 8.54641 30050 ft 433 kts 76°
2026-05-07 15:23 50.03108 8.63714 30045 ft 433 kts 76°
2026-05-07 15:24 50.04529 8.72833 30042 ft 433 kts 76°
2026-05-07 15:24 50.06124 8.81825 30074 ft 432 kts 67°
2026-05-07 15:25 50.08532 8.90369 30038 ft 432 kts 64°
2026-05-07 15:25 50.11038 8.98892 30050 ft 432 kts 64°
2026-05-07 15:26 50.13531 9.07480 30043 ft 432 kts 68°
2026-05-07 15:26 50.15482 9.16340 30053 ft 432 kts 71°
2026-05-07 15:27 50.17345 9.25239 30041 ft 432 kts 71°
2026-05-07 15:27 50.18043 9.29811 30057 ft 433 kts 83°
2026-05-07 15:27 50.18230 9.34493 30067 ft 433 kts 88°
2026-05-07 15:28 50.18312 9.42419 30054 ft 432 kts 89°
2026-05-07 15:28 50.18409 9.51857 30044 ft 432 kts 89°
2026-05-07 15:29 50.18510 9.61234 30049 ft 432 kts 89°
2026-05-07 15:29 50.18607 9.70623 30050 ft 432 kts 89°
2026-05-07 15:30 50.18696 9.79992 30045 ft 432 kts 89°
2026-05-07 15:30 50.18779 9.89363 30044 ft 432 kts 89°
2026-05-07 15:31 50.18726 9.98720 30066 ft 431 kts 97°
2026-05-07 15:31 50.18007 10.03252 30047 ft 431 kts 112°
2026-05-07 15:31 50.16514 10.07276 30069 ft 430 kts 128°
2026-05-07 15:32 50.12684 10.14429 30037 ft 429 kts 131°
2026-05-07 15:32 50.08844 10.21554 30044 ft 429 kts 130°
2026-05-07 15:33 50.05743 10.29491 29698 ft 433 kts 115°
2026-05-07 15:33 50.04467 10.33725 29425 ft 432 kts 115°
2026-05-07 15:33 50.03169 10.37979 28777 ft 436 kts 115°
2026-05-07 15:34 50.01872 10.42215 28181 ft 433 kts 115°
2026-05-07 15:34 50.00579 10.46417 27586 ft 428 kts 115°
2026-05-07 15:34 49.99294 10.50571 27022 ft 424 kts 115°
2026-05-07 15:34 49.98021 10.54676 26463 ft 420 kts 115°
2026-05-07 15:35 49.96701 10.58705 25920 ft 417 kts 121°
2026-05-07 15:35 49.94815 10.62161 25370 ft 415 kts 141°
2026-05-07 15:35 49.92330 10.64358 24834 ft 411 kts 159°
2026-05-07 15:35 49.89631 10.65803 24285 ft 410 kts 162°
2026-05-07 15:36 49.86939 10.67203 23728 ft 407 kts 162°
2026-05-07 15:36 49.84276 10.68642 23160 ft 402 kts 161°
2026-05-07 15:36 49.81653 10.70069 22660 ft 398 kts 164°
2026-05-07 15:36 49.78954 10.70901 22138 ft 394 kts 174°
2026-05-07 15:37 49.76238 10.71349 21599 ft 391 kts 176°
2026-05-07 15:37 49.73543 10.71756 21093 ft 387 kts 176°
2026-05-07 15:37 49.70871 10.72177 20584 ft 384 kts 176°
2026-05-07 15:37 49.68229 10.72674 20068 ft 382 kts 170°
2026-05-07 15:38 49.65776 10.74218 19559 ft 383 kts 147°
2026-05-07 15:38 49.63850 10.77043 19060 ft 384 kts 127°
2026-05-07 15:38 49.62627 10.80672 18560 ft 383 kts 107°
2026-05-07 15:38 49.62117 10.84683 18037 ft 381 kts 98°
2026-05-07 15:39 49.61768 10.88713 17533 ft 377 kts 97°
2026-05-07 15:39 49.61407 10.92707 17038 ft 375 kts 98°
2026-05-07 15:39 49.61042 10.96679 16545 ft 373 kts 98°
2026-05-07 15:39 49.60668 11.00627 16045 ft 371 kts 98°
2026-05-07 15:40 49.60289 11.04556 15553 ft 369 kts 98°
2026-05-07 15:40 49.59908 11.08457 15066 ft 367 kts 98°
2026-05-07 15:40 49.59527 11.12317 14583 ft 360 kts 98°
2026-05-07 15:40 49.59155 11.16095 14110 ft 353 kts 98°
2026-05-07 15:41 49.58789 11.19791 13612 ft 345 kts 98°
2026-05-07 15:41 49.58430 11.23397 13199 ft 336 kts 98°
2026-05-07 15:41 49.58073 11.26962 12751 ft 329 kts 98°
2026-05-07 15:41 49.57729 11.30408 12305 ft 322 kts 98°
2026-05-07 15:42 49.57389 11.33791 11889 ft 317 kts 98°
2026-05-07 15:42 49.57054 11.37116 11465 ft 312 kts 98°
2026-05-07 15:42 49.56722 11.40395 11050 ft 308 kts 99°
2026-05-07 15:42 49.56395 11.43634 10650 ft 304 kts 99°
2026-05-07 15:43 49.56069 11.46844 10245 ft 303 kts 99°
2026-05-07 15:43 49.55743 11.50038 9839 ft 301 kts 99°
2026-05-07 15:43 49.55418 11.53210 9433 ft 299 kts 99°
2026-05-07 15:43 49.55095 11.56368 9041 ft 298 kts 99°
2026-05-07 15:44 49.54762 11.59516 8647 ft 297 kts 101°
2026-05-07 15:44 49.53956 11.62406 8175 ft 295 kts 130°
2026-05-07 15:44 49.52359 11.64249 7820 ft 285 kts 162°
2026-05-07 15:44 49.50448 11.64550 7483 ft 275 kts 192°
2026-05-07 15:45 49.48585 11.64021 7201 ft 273 kts 194°
2026-05-07 15:45 49.46723 11.63416 6796 ft 272 kts 202°
2026-05-07 15:45 49.45216 11.61817 6362 ft 261 kts 235°
2026-05-07 15:45 49.44597 11.59315 6051 ft 249 kts 268°
2026-05-07 15:46 49.45127 11.54209 5421 ft 239 kts 281°
2026-05-07 15:46 49.45416 11.51717 5108 ft 235 kts 280°
2026-05-07 15:46 49.45688 11.49254 4820 ft 232 kts 279°
2026-05-07 15:47 49.45951 11.46808 4493 ft 232 kts 279°
2026-05-07 15:47 49.46204 11.44435 4671 ft 205 kts 279°
2026-05-07 15:47 49.46416 11.42478 5822 ft 185 kts 279°
2026-05-07 15:47 49.46637 11.40359 5370 ft 205 kts 279°
2026-05-07 15:48 49.46850 11.38178 4848 ft 207 kts 278°
2026-05-07 15:48 49.47060 11.36061 4587 ft 195 kts 278°
2026-05-07 15:48 49.47263 11.34071 4327 ft 180 kts 278°
2026-05-07 15:48 49.47446 11.32243 4075 ft 166 kts 279°
2026-05-07 15:49 49.47617 11.30544 3854 ft 155 kts 279°
2026-05-07 15:49 49.47775 11.28981 3644 ft 141 kts 279°
2026-05-07 15:49 49.47919 11.27553 3458 ft 130 kts 280°
2026-05-07 15:49 49.48052 11.26207 3277 ft 123 kts 281°
2026-05-07 15:50 49.48177 11.24901 3126 ft 123 kts 280°
2026-05-07 15:50 49.48308 11.23616 2961 ft 122 kts 280°
2026-05-07 15:50 49.48439 11.22331 2809 ft 121 kts 279°
2026-05-07 15:50 49.48566 11.21056 2625 ft 120 kts 279°
2026-05-07 15:51 49.48686 11.19779 2463 ft 121 kts 279°
2026-05-07 15:51 49.48801 11.18490 2312 ft 123 kts 280°
2026-05-07 15:51 49.48947 11.17172 2114 ft 126 kts 279°
2026-05-07 15:51 49.49073 11.15850 1944 ft 124 kts 278°
2026-05-07 15:52 49.49201 11.14535 1759 ft 123 kts 279°
2026-05-07 15:52 49.49339 11.13239 1562 ft 121 kts 277°
2026-05-07 15:52 49.49458 11.11937 1419 ft 124 kts 277°
2026-05-07 15:52 49.49587 11.10629 1249 ft 123 kts 278°
2026-05-07 15:53 49.49718 11.09319 1072 ft 125 kts 278°
2026-05-07 15:53 49.49834 11.08106 1031 ft 102 kts 278°
2026-05-07 15:53 49.49923 11.07255 1023 ft 54 kts 278°
2026-05-07 15:53 49.49955 11.06937 1023 ft 24 kts 280°
2026-05-07 15:54 49.49981 11.06688 1023 ft 24 kts 278°
2026-05-07 15:54 49.49943 11.06476 1022 ft 21 kts 194°
2026-05-07 15:54 49.49816 11.06548 1019 ft 16 kts 145°
2026-05-07 15:54 49.49786 11.06711 1018 ft 17 kts 98°
2026-05-07 15:55 49.49765 11.06909 1019 ft 20 kts 99°
2026-05-07 15:55 49.49745 11.07121 1020 ft 21 kts 98°
2026-05-07 15:55 49.49667 11.07227 1023 ft 16 kts 186°
2026-05-07 15:55 49.49633 11.07280 1024 ft 6 kts 98°
2026-05-07 15:56 49.49626 11.07358 1024 ft 10 kts 98°
2026-05-07 15:56 49.49613 11.07489 1020 ft 14 kts 98°
2026-05-07 15:56 49.49584 11.07593 1023 ft 7 kts 168°
2026-05-07 15:56 49.49541 11.07586 1025 ft 2 kts 189°
2026-05-07 15:57 49.49536 11.07585 1025 ft 0 kts 188°